Regional Weather Roundup
Issued by NWS Burlington, VT

Home | Current Version | Previous Version | Text Only | Print | Product List | Glossary On
Versions: 1 2 3 4 5 6 7 8 9 10 11 12 13 14 15 16 17 18 19 20 21 22 23 24 25 26 27 28 29 30 31 32 33 34 35 36 37 38 39 40 41 42 43 44 45 46 47 48 49 50
000
ASUS41 KBTV 250310
RWRBTV
VERMONT REGIONAL WEATHER ROUNDUP
NATIONAL WEATHER SERVICE BURLINGTON VT
1100 PM EDT WED MAY 24 2017

NOTE: "FAIR" INDICATES FEW OR NO CLOUDS BELOW 12,000 FEET WITH NO
SIGNIFICANT WEATHER AND/OR OBSTRUCTIONS TO VISIBILITY.

* THESE REPORTS ARE NOT UNDER NWS QUALITY CONTROL AND/OR DO NOT
  REPORT WEATHER SUCH AS PRECIPITATION AND FOG.

VTZ001>019-250400-
_____VERMONT_____


CITY           SKY/WX    TMP DP  RH WIND       PRES   REMARKS
BURLINGTON     PTCLDY    65  54  67 E3        29.80R
MONTPELIER     PTCLDY    59  50  72 S6        29.88S
MORRISVILLE    CLEAR     53  52  96 SW3       29.85S
ST. JOHNSBURY*   N/A     59  54  83 MISG      29.83S
LYNDONVILLE*   FAIR      59  52  78 CALM      29.87S
MIDDLEBURY*    FAIR      64  49  57 S5        29.81R
RUTLAND*       CLOUDY    60  50  69 E12       29.83R
SPRINGFIELD    CLOUDY    54  50  86 CALM      29.85R
HIGHGATE*      FAIR      61  55  78 E6        29.80R
NEWPORT*       MOCLDY    55  53  94 CALM      29.85S
BENNINGTON     PTCLDY    63  47  55 VRB3      29.82R
SUTTON*          N/A     55 N/A N/A MISG        N/A

_____LAKE CHAMPLAIN_____


CITY           SKY/WX    TMP DP  RH WIND       PRES   REMARKS

$$

NYZ007-026>031-035-052-083-087-250400-
_____NORTHERN NEW YORK_____


CITY           SKY/WX    TMP DP  RH WIND       PRES   REMARKS
PLATTSBURGH    MOCLDY    57  53  86 CALM      29.79R
SARANAC LAKE   CLOUDY    52  49  89 CALM      29.81R
MASSENA        CLOUDY    65  55  70 NE5       29.77S
OGDENSBURG*    FAIR      66  54  65 E6        29.74F
POTSDAM*       CLOUDY    64  55  72 SE5       29.76S
WATERTOWN      PTCLDY    60  51  72 E3        29.72S
FT DRUM        CLOUDY    64  50  61 E8        29.73F
ALBANY         CLOUDY    66  48  52 SE8       29.80S

$$
NHZ002-005-011-250400-
_____NEW HAMPSHIRE_____


CITY           SKY/WX    TMP DP  RH WIND       PRES   REMARKS
LEBANON        CLOUDY    55  51  86 CALM      29.85R
KEENE          CLOUDY    58  50  75 CALM      29.86S
MT WASHINGTON  MOCLDY    41  37  87 E10         N/A
WHITEFIELD     PTCLDY    50  47  89 CALM      29.85F

$$

_____REGIONAL QUEBEC LOCATIONS_____


CITY           SKY/WX    TMP DP  RH WIND       PRES   REMARKS
MONTREAL       PTCLDY    63  46  55 NE8       29.80R
QUEBEC CITY    PTCLDY    55  48  76 NE7       29.90R
SHERBROOKE     CLOUDY    59  54  82 NE6       29.84F

_____REGIONAL ONTARIO LOCATIONS_____


CITY           SKY/WX    TMP DP  RH WIND       PRES   REMARKS
OTTAWA         CLOUDY    64  54  68 NE7       29.76F

______KEY______
VSB  - VISIBILITY IN MILES
WCI  - WIND CHILL INDEX
HX   - HEAT INDEX
$$
NNNN




USA.gov is the U.S. government's official web portal to all federal, state and local government web resources and services.